SCP
0 0 0 0 0 0 0 0 0 0 0 0 0 0 0 0 0 0 0 0 0 0 0 0 0 0 0 0 0 0 0 0 0 0 0 0 0 0 0 0 0 0 0 0
0 0 0 0 0 0 0 0 0 0 0 0 0 0 0 0 0 0 0 0 0 0 0 0 0 0 0 0 0 0 0 0 0 0 0 0 0 0 0 0 0 0 0 0
0 0 0 0 0 0 0 0 0 0 0 0 0 0 0 0 0 0 0 0 0 0 0 0 0 0 0 0 0 0 0 0 0 0 0 0 0 0 0 0 0 0 0 0
0 0 0 0 0 0 0 0 0 0 0 0 0 0 0 0 0 0 0 0 0 0 0 0 0 0 0 0 0 0 0 0 0 0 0 -0 0 0 0 0 0 0 0 0
0 0 0 0 0 0 0 0 0 0 0 0 0 0 0 0 0 0 0 0 0 0 0 0 0 0 0 0 0 0 0 0 0 0 0 -0 0 0 0 0 0 0 0 0
0 0 0 0 0 0 0 0 0 0 0 0 0 0 0 0 0 0 0 0 0 0 0 0 0 0 0 0 0 0 0 0 0 0 -0 0 0 0 0 0 0 0 0 0
0 0 0 0 0 0 0 0 -0 0 0 0 0 0 0 0 0 0 0 0 0 0 0 0 0 0 0 0 0 0 0 0 0 0 -0 0 0 0 0 0 0 0 0 0
0 0 0 0 0 0 0 0 0 0 0 0 0 0 0 0 0 0 0 0 0 0 0 0 0 0 0 0 0 -0 0 0 0 0 0 0 0 0 0 0 0 0 0 0
0 0 0 0 0 0 0 0 0 0 0 0 0 0 0 0 0 0 0 0 0 0 0 0 0 0 0 0 -0 -0 0 0 0 0 0 0 0 0 0 0 0 0 0 0
0 0 0 0 0 0 0 0 0 0 0 0 0 0 0 0 0 0 0 0 0 0 0 0 0 0 0 0 0 -0 0 0 0 0 0 0 0 0 0 0 0 0 0 0
0 0 0 0 0 0 0 0 0 0 0 0 0 0 0 0 0 0 0 0 0 0 0 0 0 0 0 0 0 0 0 0 0 0 0 0 0 0 0 0 0 0 0 0
0 0 0 0 0 0 0 0 0 0 0 0 0 0 0 0 0 0 0 0 0 0 -0 -0 0 0 0 0 0 0 0 0 0 0 0 0 0 0 0 0 0 0 0 0
0 0 0 0 0 0 0 0 0 0 0 0 0 0 0 0 0 0 0 0 0 0 -0 0 0 0 0 0 0 0 0 0 0 0 0 0 0 0 0 0 0 0 0 0
0 0 0 0 0 0 0 0 0 0 0 0 0 0 0 0 0 0 0 0 0 0 0 0 0 0 0 0 0 0 0 0 0 0 0 0 0 0 0 0 0 0 0 0
0 0 0 0 0 0 0 0 0 0 0 0 0 0 0 0 0 0 0 0 0 0 0 0 0 0 0 0 0 0 0 0 0 0 0 0 0 0 0 0 0 0 0 0
0 0 0 0 0 0 0 0 0 0 0 0 0 0 0 0 0 0 0 0 0 0 0 0 0 0 0 0 0 0 0 0 0 0 0 0 0 0 0 0 0 0 0 0
0 0 0 0 0 0 0 0 0 0 0 0 0 0 0 0 0 0 0 0 0 0 0 0 0 0 0 0 0 0 0 0 0 0 0 0 0 0 0 0 0 0 0 0
0 0 0 0 0 0 0 0 0 0 0 0 0 0 0 0 0 0 0 -0 -0 -0 0 0 0 0 0 0 0 0 0 0 0 0 0 0 0 0 0 0 0 0 0 0
0 0 0 0 0 0 0 0 0 0 0 0 0 0 0 0 0 0 0 -0 -0 -0 0 0 0 0 0 0 0 0 0 0 0 0 0 0 0 0 0 0 0 0 0 0
0 0 0 0 0 0 0 0 0 0 0 0 0 0 0 0 0 0 0 0 0 -0 0 0 0 0 0 0 0 0 0 0 0 0 0 0 0 0 0 0 0 0 0 0
0 0 0 0 0 0 0 0 0 0 0 0 0 0 0 0 0 0 0 0 0 0 0 0 0 0 0 0 0 0 0 0 0 0 0 0 0 0 0 0 0 0 0 0
0 0 0 0 0 0 0 0 0 0 -0 0 0 0 0 0 -0 0 0 0 0 0 0 0 0 0 0 0 0 0 0 0 0 0 0 0 0 0 0 0 0 0 0 0
0 0 0 0 0 0 0 0 0 0 -0 -0 0 0 0 0 -0 0 0 0 0 0 0 0 0 0 0 0 0 0 0 0 0 0 0 0 0 0 0 0 0 0 0 0
0 0 0 0 0 0 0 0 0 0 0 0 0 0 0 0 0 0 -0 -0 0 0 0 0 0 0 0 0 0 0 0 0 0 0 0 0 0 0 0 0 0 0 0 0
0 0 0 0 0 0 0 0 0 0 0 0 0 0 0 0 0 0 0 -0 0 0 0 0 0 0 0 0 0 0 0 0 0 0 0 0 0 0 0 0 0 0 0 0
0 0 0 0 0 0 0 0 0 0 0 0 0 0 0 0 0 0 0 0 0 0 0 0 0 0 0 0 0 0 0 0 0 0 0 0 0 0 0 0 0 0 0 0
0 0 0 0 0 0 0 0 -0 -0 0 0 0 0 0 0 0 0 0 0 0 0 0 0 0 0 0 0 0 0 0 0 0 0 0 0 0 0 0 0 0 0 0 0
Wind_Speed
11 11 10 11 12 10 12 11 10 10 11 11 7 6 6 4 3 4 4 4 3 4 4 4 3 4 4 4 4 5 5 6 6 5 5 5 4 4 4 4 4 4 4 4
9 10 12 15 16 15 15 15 17 16 16 10 7 5 5 5 4 4 4 4 5 5 4 4 4 4 4 4 4 4 5 6 5 5 5 5 5 4 4 4 4 4 4 4
7 6 8 12 12 13 10 10 10 13 10 5 4 5 4 4 4 4 4 5 5 5 5 5 5 4 5 5 4 4 5 5 5 5 5 5 5 5 5 5 5 5 5 5
5 5 10 8 1 3 6 7 6 6 5 4 4 4 4 3 3 4 5 6 6 6 6 5 4 4 4 4 4 4 5 5 5 5 5 5 5 6 5 5 5 5 5 5
4 6 11 7 4 3 4 5 5 6 5 4 4 4 3 2 3 4 5 6 6 6 6 5 5 4 4 4 4 4 5 5 5 5 5 5 6 6 5 5 5 5 5 5
6 6 8 4 1 1 1 4 1 2 3 3 2 3 4 4 5 5 6 6 6 6 6 6 5 4 4 5 5 6 6 6 5 5 5 6 6 6 5 5 5 5 5 5
10 9 10 4 2 3 2 4 1 1 2 2 3 5 6 6 6 6 6 7 7 6 6 6 5 4 5 5 6 6 5 5 5 5 6 6 5 4 4 4 4 4 4 4
7 9 11 2 3 4 4 2 2 3 3 4 6 7 7 7 7 7 7 7 7 6 6 6 5 5 6 6 6 5 4 5 5 5 5 4 4 4 4 4 4 4 4 4
9 9 4 3 3 4 3 3 4 4 5 6 7 7 7 7 7 7 7 7 6 6 7 6 5 5 7 7 5 4 4 5 5 5 5 5 5 5 4 5 5 4 4 5
7 9 7 7 7 6 4 5 6 5 6 7 8 9 8 8 7 7 7 7 6 6 7 7 6 6 6 6 5 4 5 6 5 5 5 5 5 5 5 5 5 5 5 5
11 10 9 9 7 5 5 5 6 7 7 7 8 9 8 8 8 7 7 6 6 6 7 8 7 7 6 5 5 5 6 5 5 5 5 5 5 5 6 6 7 7 6 5
12 8 8 9 7 7 7 7 7 7 8 7 7 9 9 8 7 7 7 7 6 7 7 7 7 7 6 6 5 5 5 5 4 4 4 4 4 4 6 7 8 9 8 6
13 10 10 10 9 7 7 7 7 7 7 8 7 8 8 8 7 6 7 7 8 8 8 7 7 8 7 6 6 6 6 5 4 4 4 5 5 5 4 4 6 8 9 9
9 8 10 9 8 7 7 7 7 7 7 7 7 7 7 8 7 7 8 8 8 8 8 7 8 9 7 6 6 6 6 7 6 5 5 5 5 5 5 5 4 4 6 10
8 7 8 7 7 6 5 6 6 7 7 7 7 7 7 8 8 9 8 8 8 8 8 8 8 9 6 6 6 7 6 5 5 5 4 5 5 4 4 5 5 4 3 5
6 6 6 6 6 6 6 6 7 8 8 8 7 8 8 9 9 9 8 7 8 9 9 8 9 8 6 6 6 5 5 8 6 4 4 4 5 5 5 5 5 5 5 5
4 5 5 6 6 7 7 7 8 8 8 8 9 8 9 9 9 9 8 7 8 9 9 8 9 8 6 6 6 5 4 6 8 5 5 5 5 5 5 5 5 5 5 6
4 5 6 7 7 8 8 8 8 8 8 8 8 8 9 9 10 10 9 8 8 9 8 8 7 6 6 6 5 4 4 4 5 5 5 5 5 5 5 5 6 6 4 6
4 4 5 6 7 7 8 8 8 8 8 8 8 9 9 9 9 9 8 7 8 10 9 7 8 6 6 6 6 4 4 5 5 5 5 7 6 5 5 5 5 5 5 5
5 5 6 7 8 8 8 9 9 9 8 8 8 9 10 10 8 8 8 9 8 8 7 7 6 5 5 6 6 4 5 5 6 5 5 5 5 5 5 5 5 5 5 5
7 7 8 8 8 9 9 9 9 9 9 8 9 10 10 10 8 7 7 9 9 7 6 8 5 5 4 5 6 4 5 5 5 5 5 5 5 5 5 5 5 5 5 5
7 8 9 9 9 9 9 8 9 10 10 10 10 10 10 10 9 8 9 9 8 9 6 5 4 6 6 6 4 5 5 5 5 5 5 5 5 5 5 5 5 5 5 5
8 9 9 9 10 10 10 10 9 9 10 10 10 10 10 9 7 7 9 7 5 8 6 5 7 9 9 5 4 5 5 5 5 5 5 5 5 5 5 5 5 5 5 5
9 10 10 9 9 10 11 11 10 8 9 10 10 10 9 8 8 7 7 9 10 9 6 7 10 10 9 4 4 4 5 5 5 5 5 5 4 4 4 5 4 4 5 5
10 10 9 9 9 9 10 10 9 9 9 8 9 9 7 6 7 7 6 7 9 9 6 7 10 9 6 4 4 4 4 5 4 4 4 4 4 4 4 4 4 4 4 5
9 9 9 9 9 8 7 7 7 7 7 7 7 6 5 5 6 6 5 6 7 8 6 5 5 5 4 4 4 4 4 4 4 4 4 4 4 4 4 4 5 4 4 4
8 8 7 7 8 7 7 7 8 8 7 7 8 6 5 5 5 5 6 5 5 5 4 4 4 3 3 3 3 3 3 3 3 3 3 3 3 4 4 5 4 4 4 4
Wind_Direction
269 280 277 266 259 241 231 232 241 255 262 273 291 303 307 305 309 312 305 302 296 288 279 270 268 263 251 243 231 217 214 218 225 226 225 228 226 223 221 221 224 224 226 224
276 264 265 266 257 247 245 242 247 260 270 273 281 288 297 305 304 301 306 306 301 293 286 277 270 265 259 250 239 222 220 223 223 222 221 224 222 220 219 219 219 221 223 219
273 283 295 267 248 231 230 228 230 246 256 288 304 311 310 312 310 302 307 309 305 300 290 279 270 264 260 249 242 231 228 229 225 221 223 224 221 219 219 220 218 220 218 206
276 289 250 246 245 215 231 243 233 250 277 299 300 301 302 312 317 315 314 308 303 298 292 283 274 268 264 256 242 235 234 232 227 223 224 223 220 221 221 219 218 218 216 207
249 261 271 269 238 203 223 262 234 242 268 293 323 327 307 328 336 308 300 295 293 292 290 285 278 266 263 261 247 239 239 236 231 222 221 221 224 225 221 219 221 217 209 203
233 246 253 260 161 77 101 263 249 216 268 295 345 308 285 324 320 306 302 296 295 297 296 289 278 266 263 260 251 246 241 234 229 221 219 224 226 224 219 215 216 211 209 201
233 246 259 265 141 109 194 249 2 345 314 310 274 258 281 300 299 295 292 290 289 290 290 285 281 271 260 257 256 252 243 233 227 221 220 225 224 219 215 212 204 203 205 205
213 232 250 195 147 200 242 316 333 321 304 292 283 287 293 292 289 289 288 287 285 285 286 284 280 271 265 260 257 249 240 237 231 223 221 218 214 217 212 205 202 202 202 210
213 230 262 184 219 252 277 292 295 293 293 289 285 283 284 284 285 285 282 283 281 279 283 283 275 268 269 268 262 250 240 239 234 225 217 209 209 212 212 207 205 205 203 211
265 264 273 272 274 271 267 274 282 284 290 291 287 287 285 283 283 284 282 281 278 277 280 282 277 270 265 269 263 248 246 243 232 223 219 211 208 205 208 209 207 206 207 209
264 274 285 271 269 277 288 287 285 283 280 281 283 283 283 284 283 281 281 279 273 271 275 278 278 274 269 265 257 251 248 243 234 222 215 214 211 211 213 215 208 207 209 201
261 266 268 277 280 281 279 278 278 279 278 276 275 279 282 280 278 277 279 278 276 272 272 276 275 273 269 261 249 242 246 241 231 221 216 213 213 225 223 220 217 214 212 205
268 277 275 281 282 279 278 281 281 278 277 281 280 277 278 278 278 277 279 278 276 273 271 272 273 271 269 261 249 239 239 235 230 222 216 213 208 210 226 230 220 218 216 212
273 279 277 278 280 284 282 284 283 280 277 275 277 279 278 279 279 279 278 276 277 277 275 272 272 271 267 258 249 241 237 231 226 223 217 214 211 211 210 210 216 224 217 212
271 272 273 282 284 288 289 291 289 284 282 280 278 277 278 279 279 278 278 278 278 276 274 272 271 272 267 256 249 243 235 227 221 219 215 214 210 207 208 208 210 212 204 206
284 285 281 280 282 287 289 289 286 284 283 282 282 281 279 276 274 274 275 274 274 275 275 273 271 270 263 254 249 244 234 229 224 219 214 212 207 205 208 207 205 204 206 203
291 290 292 289 285 284 284 283 279 278 278 279 280 282 282 281 279 278 276 272 268 270 270 268 270 269 258 252 246 239 231 228 223 220 214 213 211 209 208 208 210 211 211 201
260 268 273 274 275 280 281 280 278 277 276 275 279 281 280 278 277 278 278 279 279 278 273 267 266 265 258 253 245 234 225 224 221 220 217 214 214 212 211 212 213 212 209 200
289 286 285 283 281 281 282 282 281 278 278 278 279 278 276 274 274 277 279 278 277 279 279 272 268 262 257 252 246 233 224 223 224 222 217 218 219 214 211 211 212 210 201 196
291 289 286 284 283 280 281 281 282 281 279 278 280 281 281 279 276 277 277 273 266 267 272 272 268 261 254 247 239 232 224 222 223 222 218 214 213 214 213 211 209 208 205 202
279 279 278 279 281 279 276 277 278 278 280 277 275 276 277 278 276 274 274 277 276 269 267 266 264 259 251 243 237 233 226 223 221 220 218 217 215 215 213 211 210 210 208 204
278 278 279 280 281 281 278 274 272 275 278 277 273 272 274 277 275 272 263 264 272 272 269 260 258 257 256 251 236 231 227 222 221 220 218 214 212 212 212 210 209 209 207 202
275 275 276 277 277 280 281 276 272 272 272 272 272 272 270 270 269 269 276 270 265 264 264 259 260 260 259 253 236 230 228 224 222 220 219 216 212 209 208 206 206 205 205 202
274 275 274 275 276 278 280 280 277 273 270 270 268 266 266 272 272 261 259 269 271 270 264 260 261 260 259 253 238 232 230 227 223 219 216 212 209 205 203 201 203 204 204 201
270 271 272 273 274 273 273 276 278 275 272 270 268 265 260 254 259 268 268 267 267 268 266 262 258 256 251 243 236 234 231 227 222 213 207 203 202 202 200 197 198 199 201 201
265 267 268 265 264 267 268 269 271 273 273 275 275 269 266 262 261 265 267 265 263 264 264 260 252 248 241 237 234 232 231 226 219 212 204 200 199 198 196 197 195 197 199 197
263 263 265 269 266 260 259 260 264 269 268 268 274 272 268 268 267 267 266 266 264 260 257 252 245 240 239 238 234 227 220 210 201 198 196 195 192 192 191 192 192 190 187 187